User: anonymous   Login
Location: Oshawa
(43.9000°N, 78.8670°W)
Time: 00:45:54
(UTC-04:00)
Language:

Cosmos 1953 Rocket - Orbit

View from above orbital plane
View from above orbital plane
View from above satellite
View from above satellite

Ground track
Ground track

The orbit data is extracted from the following two-line orbital elements,

1 19211U 88050B   16209.85355873  .00000091  00000-0  81735-5 0  9996
2 19211  82.5283 145.7475 0023433 105.0195 312.4072 14.82908615518729
Epoch (UTC): 27 July 2016 20:29:07
Eccentricity: 0.0023433
inclination: 82.5283°
perigee height: 604 km
apogee height: 636 km
right ascension of ascending node: 145.7475°
argument of perigee: 105.0195°
revolutions per day: 14.82908615
mean anomaly at epoch: 312.4072°
orbit number at epoch: 51872

The dashed part of the orbit path shows where the satellite is in the earth's shadow,  

DLR